Location: Broletto
(44.6000°N, 10.5833°E)
Time: 02:23:08
(UTC+00:00)

Resurs 01 Rocket - Pass Details

Date: 18 April 2021
Orbit: 634 x 644 km, 97.9° (Epoch: 08 May)

Event Time Altitude Azimuth Distance (km) Brightness Sun altitude
Exits shadow 20:50:19 18° 229° (SW) 1,598 3.6 -25.1°
Maximum altitude 20:52:19 24° 266° (W) 1,352 3.6 -25.4°
Drops below altitude 10° 20:55:55 10° 320° (NW) 2,050 5.3 -25.8°
Sets 20:58:31 0° 335° (NNW) 2,965 6.3 -26.1°
